This is the latest recevied weather packets stored in our database for station/object W3BRL. If no packets are shown the sender has not sent any weather packets the latest 10 day(s).
| Time | Temp. | Humidity | Pressure | Rain* | Wind** | Luminosity | Snow |
|---|---|---|---|---|---|---|---|
| 1777923696 | 22.78° C | 38% | 1005.5 hPa | 0 mm | - | 773 W/m² | - |
| 1777923393 | 22.22° C | 39% | 1005.5 hPa | 0 mm | - | 764 W/m² | - |
| 1777923091 | 22.22° C | 40% | 1005.7 hPa | 0 mm | - | 757 W/m² | - |
| 1777922789 | 22.22° C | 40% | 1005.7 hPa | 0 mm | - | 835 W/m² | - |
| 1777922487 | 22.22° C | 39% | 1005.9 hPa | 0 mm | - | 788 W/m² | - |
| 1777922185 | 22.22° C | 39% | 1005.8 hPa | 0 mm | - | 775 W/m² | - |
| 1777921881 | 21.67° C | 40% | 1005.6 hPa | 0 mm | - | 845 W/m² | - |
| 1777921577 | 22.22° C | 40% | 1005.7 hPa | 0 mm | - | 294 W/m² | - |
| 1777921274 | 21.67° C | 40% | 1005.8 hPa | 0 mm | - | 795 W/m² | - |
| 1777920970 | 21.67° C | 40% | 1005.9 hPa | 0 mm | - | 789 W/m² | - |
| 1777920667 | 21.67° C | 40% | 1006.1 hPa | 0 mm | - | 807 W/m² | - |
| 1777920362 | 21.67° C | 40% | 1006.2 hPa | 0 mm | - | 675 W/m² | - |
| 1777920058 | 21.67° C | 39% | 1006.3 hPa | 0 mm | - | 829 W/m² | - |
| 1777919755 | 21.67° C | 39% | 1006.3 hPa | 0 mm | - | 812 W/m² | - |
| 1777919453 | 21.67° C | 39% | 1006.3 hPa | 0 mm | - | 834 W/m² | - |
| 1777919150 | 21.67° C | 39% | 1006.3 hPa | 0 mm | - | 205 W/m² | - |
| 1777918847 | 21.67° C | 38% | 1006.4 hPa | 0 mm | - | 826 W/m² | - |
| 1777918544 | 21.67° C | 39% | 1006.5 hPa | 0 mm | - | 814 W/m² | - |
| 1777918242 | 21.67° C | 38% | 1006.5 hPa | 0 mm | - | 850 W/m² | - |
| 1777917941 | 21.67° C | 39% | 1006.6 hPa | 0 mm | - | 287 W/m² | - |
| 1777917639 | 21.11° C | 40% | 1006.6 hPa | 0 mm | - | 872 W/m² | - |
| 1777917336 | 21.11° C | 39% | 1006.7 hPa | 0 mm | - | 850 W/m² | - |
| 1777917034 | 21.11° C | 40% | 1006.8 hPa | 0 mm | - | 895 W/m² | - |
| 1777916732 | 21.11° C | 39% | 1007.1 hPa | 0 mm | - | 885 W/m² | - |
| 1777916428 | 20.56° C | 40% | 1007.1 hPa | 0 mm | - | 913 W/m² | - |
* Rain latest hour (hover to see other rain measurements)
** Current wind speed in m/s (hover to see current wind gust speed)